Content
SEND FEEDBACK

Daily
Averages
Monthly
Summary
United States of America

MEYERS, CALIFORNIA


Home > North America > United States > California
Elevation: 6470 feet     Latitude: 38 49N     Longitude: 120 01W

WEATHER
 
SELECT A DAY
Number of Records: 174,348;   Date Range: 1/1/95 - 7/23/14
 
SHARE

PRINT THIS DATA

[ ← Previous Day ]
WEATHER ALMANAC - MARCH 20, 2013
[ Next Day → ]
[ °C ]   °F
Weather ElementAverageHighLow
Temperature39.5 °F44.1 °F (12:53 pm)35.1 °F (6:53 am)
Dewpoint32.9 °F36 °F (11:53 am)30 °F (11:53 pm)
Humidity77.2 %87 % (7:19 am)65 % (8:38 pm)
Barometer30.04 in30.09 in (10:24 am)29.96 in (3:53 am)
Wind Speed11.5 mph20.7 mph (12:53 pm)
Wind Gust35.7 mph (9:41 pm)
Weather ElementAverage
Visibility6.5 mi
Wind DirectionSSE (172.2 °)

Weather ElementTotal
Precipitation0.90 in
Heating Degree Days25.4 (Base 65)
Averaged from 51 records on March 20, 2013
WEATHER CONDITIONS BREAKOUT
WIND DIRECTION BREAKOUT
WEATHER BY HOUR - MARCH 20, 2013
[ °C ]   °F
Local TimeTemperatureDewpointHumidityBarometerVisibilityWind DirectionWind SpeedGust SpeedPrecipitationEventsConditions
1:53 AM39.9 °F32.0 °F73 %30.01 in10.0 miSSW (200°)12.7 mph25.3 mph0.02 inRainLight Rain
2:53 AM39.0 °F32.0 °F76 %29.98 in10.0 miSouth (170°)17.3 mph23.0 mph0.01 inRainLight Rain
3:53 AM39.0 °F30.9 °F73 %29.96 in10.0 miSSE (150°)12.7 mph0.00 inRainLight Rain
4:53 AM37.9 °F30.9 °F76 %29.99 in9.0 miSouth (170°)13.8 mph21.9 mph0.00 inRainLight Rain
5:53 AM37.0 °F30.9 °F79 %30.01 in3.0 miSouth (170°)10.4 mph0.02 inSnowLight Snow
6:13 AM35.6 °F30.2 °F81 %30.07 in2.0 miSouth (170°)11.5 mph0.02 inSnowLight Snow
6:20 AM35.6 °F30.2 °F81 %30.06 in1.8 miSouth (180°)10.4 mph0.03 inSnowLight Snow
6:30 AM35.6 °F30.2 °F81 %30.07 in2.0 miSouth (180°)8.1 mph0.04 inSnowLight Snow
6:53 AM35.1 °F30.9 °F85 %30.01 in3.0 miSouth (190°)5.8 mph0.06 inSnowLight Snow
7:02 AM35.6 °F30.2 °F81 %30.06 in2.5 miSouth (180°)8.1 mph0.02 inSnowLight Snow
7:19 AM35.6 °F32.0 °F87 %30.06 in4.0 miSouth (170°)6.9 mph0.04 inSnowLight Snow
7:27 AM37.4 °F32.0 °F81 %30.05 in8.0 miSouth (170°)10.4 mph0.04 inRainLight Rain
7:45 AM37.4 °F32.0 °F81 %30.06 in6.0 miSSE (150°)3.5 mph0.04 inRainLight Rain
7:53 AM37.9 °F33.1 °F83 %30.00 in5.0 miCalm0.04 inRainLight Rain
8:15 AM37.4 °F33.8 °F87 %30.06 in5.0 miCalm0.01 inRainLight Rain
8:53 AM39.0 °F34.0 °F82 %30.02 in2.5 miSouth (190°)8.1 mph0.04 inRainRain
9:03 AM39.2 °F33.8 °F81 %30.08 in4.0 miSouth (190°)8.1 mph0.01 inRainLight Rain
9:40 AM39.2 °F33.8 °F81 %30.08 in2.5 miCalm0.04 inRainLight Rain
9:53 AM39.0 °F33.1 °F79 %30.03 in2.5 miSouth (190°)6.9 mph0.06 inRainRain
10:06 AM39.2 °F33.8 °F81 %30.07 in5.0 miSouth (180°)8.1 mph0.01 inRainLight Rain
10:24 AM39.2 °F33.8 °F81 %30.09 in4.0 miSouth (190°)12.7 mph20.7 mph0.02 inRainLight Rain
10:53 AM39.0 °F33.1 °F79 %30.04 in4.0 miSouth (190°)16.1 mph24.2 mph0.04 inRainLight Rain
11:08 AM41.0 °F33.8 °F76 %30.08 in5.0 miSouth (190°)16.1 mph23.0 mph0.00 inRainLight Rain
11:53 AM43.0 °F36.0 °F76 %30.03 in10.0 miSouth (190°)10.4 mph21.9 mph0.00 inRainLight Rain
12:53 PM44.1 °F34.0 °F68 %30.00 in10.0 miSSW (200°)20.7 mph29.9 mph0.00 inScattered Clouds
1:53 PM42.1 °F35.1 °F76 %30.01 in5.0 miSSW (200°)12.7 mph24.2 mph0.01 inRainLight Rain
2:07 PM41.0 °F33.8 °F76 %30.07 in4.0 miSSW (200°)10.4 mph28.8 mph0.01 inRainLight Rain
2:14 PM41.0 °F33.8 °F76 %30.08 in6.0 miSSW (210°)8.1 mph20.7 mph0.01 inRainLight Rain
2:28 PM39.2 °F33.8 °F81 %30.08 in4.0 miSouth (190°)9.2 mph0.02 inRainLight Rain
2:49 PM39.2 °F33.8 °F81 %30.08 in2.5 miSouth (190°)17.3 mph24.2 mph0.04 inRainLight Rain
2:53 PM39.0 °F34.0 °F82 %30.04 in3.0 miSouth (180°)13.8 mph0.04 inRainLight Rain
3:24 PM39.2 °F33.8 °F81 %30.06 in8.0 miSouth (190°)10.4 mph0.02 inRainLight Rain
3:41 PM41.0 °F33.8 °F76 %30.07 in10.0 miSSW (200°)6.9 mph23.0 mph0.02 inOvercast
3:51 PM41.0 °F33.8 °F76 %30.06 in4.0 miSSW (200°)13.8 mph25.3 mph0.03 inRainRain
3:53 PM41.0 °F34.0 °F76 %30.02 in3.0 miSSW (200°)15.0 mph25.3 mph0.03 inRainRain
4:09 PM41.0 °F35.6 °F81 %30.04 in4.0 miSouth (190°)16.1 mph21.9 mph0.02 inRainLight Rain
4:17 PM41.0 °F35.6 °F81 %30.04 in6.0 miSouth (180°)15.0 mph23.0 mph0.02 inRainLight Rain
4:53 PM43.0 °F34.0 °F71 %29.99 in10.0 miSouth (170°)16.1 mph28.8 mph0.02 inOvercast
5:01 PM42.8 °F35.6 °F76 %30.04 in10.0 miSouth (180°)18.4 mph24.2 mph0.00 inRainLight Rain
5:39 PM42.8 °F33.8 °F70 %30.03 in10.0 miSouth (170°)19.6 mph31.1 mph0.00 inScattered Clouds
5:53 PM42.1 °F34.0 °F73 %29.98 in10.0 miSouth (180°)15.0 mph28.8 mph0.00 inRainLight Rain
6:18 PM41.0 °F33.8 °F76 %30.04 in10.0 miSouth (170°)9.2 mph20.7 mph0.00 inRainLight Rain
6:53 PM39.9 °F33.1 °F77 %30.01 in10.0 miSouth (180°)15.0 mph25.3 mph0.00 inRainLight Rain
7:53 PM41.0 °F32.0 °F70 %29.98 in10.0 miSouth (180°)19.6 mph29.9 mph0.00 inMostly Cloudy
8:38 PM41.0 °F30.2 °F65 %30.04 in10.0 miSSW (200°)9.2 mph17.3 mph0.00 inMostly Cloudy
8:53 PM41.0 °F32.0 °F70 %29.99 in10.0 miSouth (190°)12.7 mph18.4 mph0.00 inRainLight Rain
9:01 PM41.0 °F32.0 °F70 %30.03 in10.0 miSouth (180°)12.7 mph21.9 mph0.00 inRainLight Rain
9:41 PM39.2 °F32.0 °F75 %30.04 in10.0 miSouth (180°)15.0 mph35.7 mph0.00 inRainLight Rain
9:53 PM39.9 °F32.0 °F73 %30.00 in10.0 miSouth (170°)13.8 mph26.5 mph0.00 inRainLight Rain
11:46 PM39.2 °F30.2 °F70 %30.06 in10.0 miSouth (170°)11.5 mph23.0 mph0.00 inOvercast
11:53 PM39.0 °F30.0 °F70 %30.00 in10.0 miSouth (170°)12.7 mph0.00 inOvercast
Hourly data recorded from KTVL, located miles away from Meyers, California







STORIES FROM OUR PARTNERS